Date String (YYYY-MM-DD hh:mm:ss) UTC,Instrument flags,Ambient pressure (hPa),Sample flow (lpm),Bypass flow (lpm),Sample temperature (°C),Ambient temperature (°C),ASC tube jacket temperature (°C),LED temperature (°C),Box temperature (°C),Sample RH (%),Span deviation,Mass concentration (μg/m³),Mass concentration (μg/m³),Mass concentration (μg/m³)
DateTimeUTC,F1_M11,P_M11,Q1_M11,Q2_M11,T1_M11,T2_M11,T3_M11,T4_M11,T5_M11,U1_M11,ZSPAN_M11,X0_M11,X2_M11,X1_M11
2023-05-09 16:00:00,,0829.6,5.01,0.00,28.4,27.1,00.0,36.6,30.1,22.3,0000.9,0012.72,0005.09,0004.10
2023-05-09 16:01:00,,0829.6,5.00,0.00,28.4,27.1,00.0,36.6,30.1,22.5,0001.5,0012.26,0005.18,0004.15
2023-05-09 16:02:00,,0829.7,5.00,0.00,28.4,27.2,00.0,36.7,30.1,22.0,0002.1,0011.97,0005.22,0004.21
2023-05-09 16:03:00,,0829.7,5.00,0.00,28.4,27.2,00.0,36.7,30.2,22.3,0002.0,0012.01,0005.29,0004.25
2023-05-09 16:04:00,,0829.6,4.99,0.00,28.5,27.2,00.0,36.7,30.2,22.5,0001.9,0012.10,0005.33,0004.27
2023-05-09 16:05:00,,0829.7,5.00,0.00,28.5,27.2,00.0,36.7,30.2,22.3,0001.8,0011.63,0005.34,0004.28
2023-05-09 16:06:00,,0829.7,5.01,0.00,28.5,27.2,00.0,36.7,30.2,22.1,0001.8,0011.80,0005.34,0004.29
2023-05-09 16:07:00,,0829.6,5.00,0.00,28.5,27.3,00.0,36.7,30.2,22.3,0001.8,0011.89,0005.37,0004.31
2023-05-09 16:08:00,,0829.6,5.00,0.00,28.5,27.3,00.0,36.8,30.2,22.6,0001.7,0011.55,0005.44,0004.33
2023-05-09 16:09:00,,0829.6,4.99,0.00,28.6,27.3,00.0,36.8,30.3,22.7,0001.5,0011.12,0005.47,0004.37
2023-05-09 16:10:00,,0829.5,4.99,0.00,28.6,27.3,00.0,36.8,30.3,22.4,0001.2,0011.14,0005.51,0004.41
2023-05-09 16:11:00,,0829.6,4.99,0.00,28.6,27.3,00.0,36.8,30.3,22.3,0000.9,0011.58,0005.58,0004.43
2023-05-09 16:12:00,,0829.6,5.00,0.00,28.6,27.4,00.0,36.8,30.3,22.0,0000.7,0011.50,0005.53,0004.45
2023-05-09 16:13:00,,0829.6,5.01,0.00,28.6,27.4,00.0,36.8,30.3,22.0,0001.0,0011.57,0005.56,0004.45
2023-05-09 16:14:00,,0829.5,5.00,0.00,28.6,27.4,00.0,36.9,30.4,22.2,0000.7,0011.30,0005.56,0004.46
2023-05-09 16:15:00,,0829.5,5.00,0.00,28.7,27.4,00.0,36.9,30.4,22.2,0000.8,0011.61,0005.57,0004.48
2023-05-09 16:16:00,,0829.5,4.99,0.00,28.7,27.5,00.0,36.9,30.4,22.5,0000.8,0011.69,0005.58,0004.49
2023-05-09 16:17:00,,0829.5,5.02,0.00,28.7,27.5,00.0,36.9,30.4,22.5,0000.9,0011.81,0005.61,0004.52
2023-05-09 16:18:00,,0829.5,5.00,0.00,28.7,27.5,00.0,36.9,30.4,22.4,0001.1,0012.00,0005.69,0004.56
2023-05-09 16:19:00,,0829.6,5.00,0.00,28.7,27.5,00.0,37.0,30.5,22.3,0001.2,0012.18,0005.71,0004.59
2023-05-09 16:20:00,,0829.5,5.00,0.00,28.8,27.5,00.0,37.0,30.5,22.4,0000.9,0012.67,0005.72,0004.59
2023-05-09 16:21:00,,0829.5,5.00,0.00,28.8,27.5,00.0,37.0,30.5,22.2,0001.0,0013.81,0005.76,0004.60
2023-05-09 16:22:00,,0829.5,5.00,0.00,28.8,27.6,00.0,37.0,30.5,22.2,0000.9,0014.55,0005.76,0004.62
2023-05-09 16:23:00,,0829.4,4.99,0.00,28.8,27.6,00.0,37.0,30.5,22.1,0001.1,0015.15,0005.77,0004.64
2023-05-09 16:24:00,,0829.4,5.00,0.00,28.8,27.6,00.0,37.1,30.6,22.2,0000.5,0016.16,0005.74,0004.64
2023-05-09 16:25:00,,0829.4,5.01,0.00,28.9,27.6,00.0,37.1,30.6,22.2,-000.1,0016.21,0005.76,0004.63
2023-05-09 16:26:00,,0829.4,5.01,0.00,28.9,27.6,00.0,37.1,30.6,22.3,-000.4,0016.01,0005.73,0004.63
2023-05-09 16:27:00,,0829.3,4.99,0.00,28.9,27.7,00.0,37.1,30.6,22.9,-000.5,0016.02,0005.69,0004.62
2023-05-09 16:28:00,,0829.3,5.00,0.00,28.9,27.7,00.0,37.1,30.6,22.8,-000.7,0015.75,0005.66,0004.59
2023-05-09 16:29:00,,0829.3,5.02,0.00,28.9,27.7,00.0,37.2,30.7,22.5,0000.0,0016.28,0005.61,0004.56
2023-05-09 16:30:00,,0829.3,4.98,0.00,28.9,27.7,00.0,37.2,30.7,22.2,0000.0,0016.76,0005.65,0004.56
2023-05-09 16:31:00,,0829.3,5.00,0.00,29.0,27.7,00.0,37.2,30.7,22.4,0000.0,0016.36,0005.63,0004.57
2023-05-09 16:32:00,,0829.3,5.01,0.00,29.0,27.8,00.0,37.2,30.7,22.5,0000.0,0015.52,0005.67,0004.57
2023-05-09 16:33:00,,0829.3,5.00,0.00,29.0,27.8,00.0,37.2,30.7,22.2,0000.0,0014.76,0005.71,0004.57
2023-05-09 16:34:00,,0829.3,4.99,0.00,29.0,27.8,00.0,37.3,30.7,22.1,0000.0,0014.41,0005.73,0004.56
2023-05-09 16:35:00,,0829.3,5.00,0.00,29.0,27.8,00.0,37.3,30.7,22.0,0000.1,0013.51,0005.70,0004.56
2023-05-09 16:36:00,,0829.3,5.00,0.00,29.1,27.8,00.0,37.3,30.8,22.0,0000.3,0014.29,0005.71,0004.56
2023-05-09 16:37:00,,0829.3,5.00,0.00,29.1,27.8,00.0,37.3,30.8,21.9,0001.3,0014.40,0005.76,0004.57
2023-05-09 16:38:00,,0829.3,5.01,0.00,29.1,27.9,00.0,37.3,30.8,22.0,0001.4,0014.71,0005.81,0004.59
2023-05-09 16:39:00,,0829.3,5.01,0.00,29.1,27.9,00.0,37.4,30.8,22.2,0001.3,0015.81,0005.82,0004.60
2023-05-09 16:40:00,,0829.3,5.00,0.00,29.1,27.9,00.0,37.4,30.8,22.1,0001.4,0015.04,0005.81,0004.59
2023-05-09 16:41:00,,0829.4,5.00,0.00,29.2,27.9,00.0,37.4,30.9,22.3,0001.2,0014.53,0005.76,0004.59
2023-05-09 16:42:00,,0829.4,5.00,0.00,29.2,27.9,00.0,37.4,30.9,22.0,0001.2,0014.71,0005.77,0004.59
2023-05-09 16:43:00,,0829.4,5.00,0.00,29.2,27.9,00.0,37.4,30.9,22.0,0001.4,0014.90,0005.68,0004.57
2023-05-09 16:44:00,,0829.4,4.99,0.00,29.2,28.0,00.0,37.4,30.9,22.3,0001.3,0014.65,0005.62,0004.54
2023-05-09 16:45:00,,0829.4,5.00,0.00,29.2,28.0,00.0,37.5,30.9,21.7,0001.1,0014.66,0005.66,0004.54
2023-05-09 16:46:00,,0829.3,5.00,0.00,29.3,28.0,00.0,37.5,30.9,21.6,0001.1,0015.14,0005.70,0004.54
2023-05-09 16:47:00,,0829.4,5.00,0.00,29.3,28.0,00.0,37.5,30.9,21.6,0001.3,0014.94,0005.75,0004.54
2023-05-09 16:48:00,,0829.4,5.00,0.00,29.3,28.0,00.0,37.5,31.0,21.5,0000.6,0014.50,0005.68,0004.52
2023-05-09 16:49:00,,0829.4,5.00,0.00,29.3,28.0,00.0,37.5,31.0,21.6,0000.6,0014.18,0005.63,0004.51
2023-05-09 16:50:00,,0829.3,5.01,0.00,29.3,28.1,00.0,37.6,31.0,21.6,0000.7,0012.99,0005.60,0004.49
2023-05-09 16:51:00,,0829.3,5.00,0.00,29.3,28.1,00.0,37.6,31.0,21.3,0000.7,0012.83,0005.62,0004.50
2023-05-09 16:52:00,,0829.2,5.00,0.00,29.3,28.1,00.0,37.6,31.0,21.8,0000.5,0013.12,0005.56,0004.47
2023-05-09 16:53:00,,0829.2,4.99,0.00,29.4,28.1,00.0,37.6,31.1,21.9,0000.2,0013.43,0005.59,0004.45
2023-05-09 16:54:00,,0829.2,4.99,0.00,29.4,28.1,00.0,37.6,31.1,22.0,-000.3,0013.12,0005.63,0004.45
2023-05-09 16:55:00,,0829.2,5.00,0.00,29.4,28.2,00.0,37.6,31.1,22.1,-000.2,0013.04,0005.64,0004.47
2023-05-09 16:56:00,,0829.2,5.01,0.00,29.4,28.2,00.0,37.7,31.1,22.2,-000.5,0012.68,0005.59,0004.51
2023-05-09 16:57:00,,0829.2,4.99,0.00,29.4,28.2,00.0,37.7,31.1,22.0,-000.6,0012.37,0005.63,0004.57
2023-05-09 16:58:00,,0829.1,5.00,0.00,29.5,28.2,00.0,37.7,31.1,21.4,-000.9,0012.35,0005.60,0004.59
2023-05-09 16:59:00,,0829.1,5.01,0.00,29.5,28.2,00.0,37.7,31.1,21.7,-001.0,0012.39,0005.63,0004.62
